Find Starlink 31434

NORAD ID: 59215 Int'l Des: 2024-046 Owner: SPXS Country: US Constellation: starlink operational
LEOCIRCULAR

現在のビュー

3D地球を読み込み中...

About Starlink 31434

Starlink 31434 (NORAD 59215) is a starlink constellation satellite (v2 mini) launched Mar 11, 2024 by SPXS of US. It operates in LEO, CIRCULAR orbit with a mass of 730.00 kg.

Starlink 31434について

説明を読み込み中...

次回通過

Passes for default location (London). Set your location on the main map for personalized predictions.

高度履歴

Loading altitude history...

軌道要素

1 59215U 24046Q 26171.33791823 -.00000081 00000-0 87584-5 0 9998
2 59215 53.1617 36.5556 0001380 81.2829 278.8330 15.34381800128789
Epoch: Jun 20, 2026 • Age: 15 hours

現在のステータス

高度 468.8 km
速度 7.63 km/s
衛星直下点 -19.94°S, 25.88°W
打ち上げ日 Mar 11, 2024
運用期間 2.2 years
タイプ internet

技術仕様

分類 Payload
質量 730.00 kg
乾燥質量 700.00 kg
総質量 730.00 kg
長さ 0.30 m
直径 4.10 m
スパン 29.00 m
形状 Box + pan
製造者 SPXS
バスタイプ Starlink V2M
フェーズステータス In Orbit
所有者/国 SPXS/US

Most Searched